Tracking 28799 objects as of 18-Apr-2024
HD Live streaming from Space Station
objects crossing your sky now

FENGYUN 1C DEB

Track FENGYUN 1C DEB now!
10-day predictions


NORAD ID: 30013
Int'l Code: 1999-025MN
Perigee: 852.1 km
Apogee: 1,040.0 km
Inclination: 99.6 °
Period: 103.8 minutes
Semi major axis: 7317 km
RCS: 0.0821 m2 (small)
Launch date: May 10, 1999
Source: People's Republic of China (PRC)
Launch site: Taiyaun Space Center, China (TSC)

Note: This is SATELLITE DEBRIS
Your satellite tracking list
Your tracking list is empty




NASA's NSSDC Master Catalog

Two Line Element Set (TLE):
1 30013U 99025MN  24108.58748233  .00000561  00000-0  48611-3 0  9992
2 30013  99.5887 106.0204 0128401 208.1923 278.1316 13.87081676873035
Source of the keplerian elements: AFSPC